| time (UTC) | temp F | wind direction | speed knots | gust knots | rain 1hr in | rain 24hr in | rain mn in | humidity % | barometer mb |
| 20260507142508 | 69 | 273 | 3.5 | 7.0 | 0.00 | 0.10 | 0.07 | 71 | 1013.3 |
| 20260507142009 | 69 | 273 | 3.5 | 7.0 | 0.00 | 0.10 | 0.07 | 71 | 1013.3 |
| 20260507141538 | 69 | 289 | 3.5 | 8.7 | 0.00 | 0.10 | 0.07 | 71 | 1013.3 |
| 20260507141007 | 69 | 227 | 5.2 | 8.7 | 0.00 | 0.10 | 0.07 | 71 | 1013.5 |
| 20260507140510 | 69 | 259 | 5.2 | 7.8 | 0.00 | 0.10 | 0.07 | 71 | 1013.5 |
| 20260507140028 | 69 | 293 | 3.5 | 7.8 | 0.00 | 0.10 | 0.07 | 72 | 1013.5 |
| 20260507135510 | 69 | 283 | 4.3 | 7.8 | 0.00 | 0.10 | 0.07 | 71 | 1013.6 |
| 20260507135011 | 69 | 247 | 5.2 | 7.8 | 0.00 | 0.10 | 0.07 | 70 | 1013.7 |
| 20260507134528 | 69 | 285 | 3.5 | 6.1 | 0.00 | 0.10 | 0.07 | 71 | 1013.7 |
| 20260507134007 | 69 | 245 | 3.5 | 6.1 | 0.00 | 0.10 | 0.07 | 72 | 1013.8 |
| 20260507133511 | 69 | 220 | 4.3 | 8.7 | 0.00 | 0.10 | 0.07 | 71 | 1013.8 |
| 20260507133020 | 69 | 288 | 4.3 | 8.7 | 0.00 | 0.10 | 0.07 | 71 | 1013.9 |
| 20260507132507 | 69 | 290 | 4.3 | 7.0 | 0.00 | 0.10 | 0.07 | 70 | 1014.0 |
| 20260507132009 | 69 | 238 | 2.6 | 7.0 | 0.00 | 0.10 | 0.07 | 71 | 1014.1 |
| 20260507131523 | 69 | 285 | 2.6 | 7.8 | 0.00 | 0.10 | 0.07 | 71 | 1014.2 |
| 20260507131009 | 69 | 264 | 3.5 | 7.8 | 0.00 | 0.10 | 0.07 | 72 | 1014.2 |
| 20260507130511 | 69 | 264 | 2.6 | 6.1 | 0.00 | 0.10 | 0.07 | 72 | 1014.2 |
| 20260507130038 | 69 | 274 | 3.5 | 7.0 | 0.00 | 0.10 | 0.07 | 72 | 1014.3 |
| 20260507125513 | 69 | 266 | 3.5 | 7.0 | 0.00 | 0.10 | 0.07 | 72 | 1014.4 |
| 20260507125008 | 69 | 288 | 2.6 | 7.0 | 0.00 | 0.10 | 0.07 | 71 | 1014.5 |
| 20260507124526 | 69 | 279 | 3.5 | 9.6 | 0.00 | 0.10 | 0.07 | 73 | 1014.6 |
| 20260507124011 | 69 | 255 | 3.5 | 9.6 | 0.00 | 0.10 | 0.07 | 71 | 1014.7 |
| 20260507123511 | 69 | 307 | 4.3 | 7.0 | 0.00 | 0.10 | 0.07 | 72 | 1014.7 |
| 20260507123026 | 69 | 218 | 4.3 | 8.7 | 0.00 | 0.10 | 0.07 | 71 | 1014.7 |
| 20260507122508 | 69 | 225 | 4.3 | 8.7 | 0.00 | 0.10 | 0.07 | 71 | 1014.7 |
| 20260507122013 | 69 | 268 | 4.3 | 7.8 | 0.00 | 0.10 | 0.07 | 70 | 1014.7 |
| 20260507121523 | 69 | 226 | 3.5 | 6.1 | 0.00 | 0.10 | 0.07 | 72 | 1014.6 |
| 20260507121009 | 69 | 210 | 3.5 | 6.1 | 0.00 | 0.10 | 0.07 | 71 | 1014.7 |
| 20260507120511 | 69 | 264 | 2.6 | 6.1 | 0.00 | 0.10 | 0.07 | 74 | 1014.7 |
| 20260507120006 | 69 | 205 | 1.7 | 7.0 | 0.00 | 0.10 | 0.07 | 75 | 1014.7 |
| 20260507115504 | 68 | 241 | 4.3 | 7.0 | 0.00 | 0.10 | 0.07 | 72 | 1014.7 |
| 20260507115003 | 68 | 244 | 2.6 | 7.0 | 0.00 | 0.10 | 0.07 | 73 | 1014.7 |
| 20260507114509 | 68 | 256 | 2.6 | 7.0 | 0.00 | 0.10 | 0.07 | 74 | 1014.7 |
| 20260507114004 | 67 | 238 | 4.3 | 7.0 | 0.00 | 0.10 | 0.07 | 73 | 1014.7 |
| 20260507113509 | 67 | 233 | 4.3 | 7.0 | 0.00 | 0.10 | 0.07 | 73 | 1014.8 |
| 20260507113014 | 68 | 259 | 4.3 | 6.1 | 0.00 | 0.10 | 0.07 | 71 | 1014.8 |
| 20260507112510 | 68 | 262 | 3.5 | 6.1 | 0.00 | 0.10 | 0.07 | 73 | 1014.7 |
| 20260507112009 | 68 | 234 | 2.6 | 6.1 | 0.00 | 0.10 | 0.07 | 74 | 1014.9 |
| 20260507111517 | 68 | 238 | 2.6 | 5.2 | 0.00 | 0.10 | 0.07 | 74 | 1014.9 |
| 20260507111008 | 67 | 220 | 2.6 | 6.1 | 0.00 | 0.10 | 0.07 | 74 | 1015.0 |
| 20260507110509 | 67 | 258 | 3.5 | 6.1 | 0.00 | 0.10 | 0.07 | 73 | 1015.1 |
| 20260507110023 | 67 | 271 | 3.5 | 6.1 | 0.00 | 0.10 | 0.07 | 74 | 1015.0 |
| 20260507105508 | 67 | 233 | 3.5 | 6.1 | 0.00 | 0.10 | 0.07 | 73 | 1014.9 |
| 20260507105012 | 67 | 284 | 1.7 | 6.1 | 0.00 | 0.10 | 0.07 | 73 | 1014.9 |
| 20260507104507 | 67 | 251 | 3.5 | 6.1 | 0.00 | 0.10 | 0.07 | 74 | 1014.9 |
| 20260507104007 | 67 | 207 | 1.7 | 5.2 | 0.00 | 0.10 | 0.07 | 75 | 1014.9 |
| 20260507103505 | 67 | 228 | 1.7 | 6.1 | 0.00 | 0.10 | 0.07 | 74 | 1015.0 |
| 20260507103011 | 67 | 239 | 1.7 | 6.1 | 0.00 | 0.10 | 0.07 | 74 | 1015.0 |
| 20260507102505 | 67 | 229 | 1.7 | 6.1 | 0.00 | 0.10 | 0.07 | 74 | 1015.0 |
| 20260507102007 | 67 | 228 | 3.5 | 6.1 | 0.00 | 0.10 | 0.07 | 73 | 1015.1 |
| 20260507101519 | 68 | 269 | 1.7 | 5.2 | 0.00 | 0.10 | 0.07 | 73 | 1015.0 |
| 20260507101009 | 67 | 238 | 1.7 | 5.2 | 0.00 | 0.10 | 0.07 | 73 | 1015.1 |
| 20260507100508 | 67 | 283 | 2.6 | 5.2 | 0.00 | 0.10 | 0.07 | 74 | 1015.1 |
| 20260507100022 | 67 | 249 | 1.7 | 3.5 | 0.00 | 0.10 | 0.07 | 71 | 1015.1 |
| 20260507095510 | 67 | 257 | 1.7 | 5.2 | 0.00 | 0.10 | 0.07 | 71 | 1015.0 |
| 20260507095009 | 68 | 220 | 0.9 | 5.2 | 0.00 | 0.10 | 0.07 | 73 | 1015.0 |
| 20260507094524 | 68 | 252 | 2.6 | 6.1 | 0.00 | 0.10 | 0.07 | 73 | 1015.0 |
| 20260507094013 | 68 | 239 | 1.7 | 6.1 | 0.00 | 0.10 | 0.07 | 73 | 1015.1 |
| 20260507093508 | 68 | 246 | 3.5 | 6.1 | 0.00 | 0.10 | 0.07 | 71 | 1015.3 |
| 20260507093008 | 68 | 259 | 1.7 | 6.1 | 0.00 | 0.10 | 0.07 | 73 | 1015.3 |
| 20260507092504 | 68 | 236 | 2.6 | 6.1 | 0.00 | 0.10 | 0.07 | 72 | 1015.2 |
| 20260507092006 | 69 | 270 | 2.6 | 4.3 | 0.00 | 0.10 | 0.07 | 72 | 1015.1 |
| 20260507091514 | 69 | 218 | 0.9 | 2.6 | 0.00 | 0.10 | 0.07 | 70 | 1015.1 |
| 20260507091009 | 68 | 230 | 0.0 | 1.7 | 0.00 | 0.10 | 0.07 | 72 | 1015.1 |
| 20260507090505 | 68 | 82 | 0.9 | 2.6 | 0.00 | 0.10 | 0.07 | 71 | 1015.1 |
| 20260507090020 | 68 | 168 | 0.9 | 3.5 | 0.00 | 0.10 | 0.07 | 74 | 1015.2 |
| 20260507085509 | 67 | 153 | 1.7 | 5.2 | 0.00 | 0.10 | 0.07 | 74 | 1015.2 |
| 20260507085008 | 67 | 141 | 0.9 | 5.2 | 0.00 | 0.10 | 0.07 | 76 | 1015.3 |
| 20260507084524 | 67 | 226 | 3.5 | 6.1 | 0.00 | 0.10 | 0.07 | 75 | 1015.3 |
| 20260507084013 | 67 | 174 | 0.9 | 6.1 | 0.00 | 0.10 | 0.07 | 74 | 1015.4 |
| 20260507083508 | 67 | 251 | 2.6 | 5.2 | 0.00 | 0.10 | 0.07 | 76 | 1015.3 |
| 20260507083024 | 67 | 242 | 2.6 | 5.2 | 0.00 | 0.10 | 0.07 | 74 | 1015.3 |
| 20260507082506 | 68 | 251 | 2.6 | 5.2 | 0.00 | 0.10 | 0.07 | 73 | 1015.3 |
| 20260507082011 | 68 | 139 | 0.9 | 3.5 | 0.00 | 0.10 | 0.07 | 77 | 1015.3 |
| 20260507081512 | 67 | 254 | 0.9 | 3.5 | 0.00 | 0.10 | 0.07 | 76 | 1015.2 |
| 20260507081007 | 67 | 218 | 0.9 | 3.5 | 0.00 | 0.10 | 0.07 | 75 | 1015.2 |
| 20260507080505 | 67 | 187 | 0.9 | 3.5 | 0.00 | 0.10 | 0.07 | 76 | 1015.3 |
| 20260507080017 | 67 | 130 | 0.9 | 3.5 | 0.00 | 0.10 | 0.07 | 79 | 1015.2 |
| 20260507075505 | 66 | 259 | 0.9 | 3.5 | 0.00 | 0.10 | 0.07 | 77 | 1015.3 |
| 20260507075007 | 66 | 231 | 0.9 | 5.2 | 0.00 | 0.10 | 0.07 | 79 | 1015.3 |
| 20260507074520 | 66 | 184 | 1.7 | 5.2 | 0.00 | 0.10 | 0.07 | 79 | 1015.2 |
| 20260507074012 | 66 | 237 | 0.9 | 3.5 | 0.00 | 0.10 | 0.07 | 81 | 1015.2 |
| 20260507073510 | 65 | 117 | 0.9 | 4.3 | 0.00 | 0.10 | 0.07 | 82 | 1015.3 |
| 20260507073024 | 64 | 71 | 0.9 | 4.3 | 0.00 | 0.10 | 0.07 | 83 | 1015.4 |
| 20260507072509 | 65 | 260 | 0.9 | 2.6 | 0.00 | 0.10 | 0.07 | 82 | 1015.4 |
| 20260507072011 | 65 | 248 | 0.9 | 2.6 | 0.00 | 0.10 | 0.07 | 84 | 1015.3 |
| 20260507071533 | 64 | 281 | 0.9 | 3.5 | 0.00 | 0.10 | 0.07 | 84 | 1015.4 |
| 20260507071011 | 63 | 120 | 0.9 | 3.5 | 0.00 | 0.10 | 0.07 | 85 | 1015.5 |
| 20260507070512 | 63 | 106 | 1.7 | 3.5 | 0.00 | 0.10 | 0.07 | 85 | 1015.4 |
| 20260507070014 | 63 | 92 | 0.9 | 3.5 | 0.00 | 0.10 | 0.07 | 86 | 1015.3 |
| 20260507065504 | 63 | 80 | 0.9 | 3.5 | 0.00 | 0.10 | 0.07 | 86 | 1015.3 |
| 20260507065009 | 63 | 283 | 0.9 | 3.5 | 0.00 | 0.10 | 0.07 | 87 | 1015.1 |
| 20260507064531 | 62 | 106 | 0.9 | 5.2 | 0.00 | 0.10 | 0.07 | 87 | 1015.1 |
| 20260507064011 | 62 | 138 | 0.9 | 5.2 | 0.00 | 0.10 | 0.07 | 88 | 1015.1 |
| 20260507063508 | 62 | 245 | 0.0 | 3.5 | 0.00 | 0.10 | 0.07 | 90 | 1015.0 |
| 20260507063024 | 61 | 191 | 0.9 | 3.5 | 0.00 | 0.10 | 0.07 | 89 | 1014.9 |
| 20260507062516 | 61 | 134 | 0.0 | 4.3 | 0.00 | 0.10 | 0.07 | 91 | 1014.9 |
| 20260507062010 | 61 | 136 | 0.0 | 4.3 | 0.00 | 0.10 | 0.07 | 91 | 1014.9 |
| 20260507061524 | 61 | 94 | 0.9 | 2.6 | 0.00 | 0.10 | 0.07 | 91 | 1014.9 |
| 20260507061010 | 60 | 88 | 0.9 | 1.7 | 0.00 | 0.10 | 0.07 | 92 | 1014.9 |
| 20260507060508 | 60 | 20 | 0.9 | 2.6 | 0.00 | 0.10 | 0.07 | 92 | 1014.9 |
| 20260507060026 | 59 | 132 | 0.9 | 2.6 | 0.00 | 0.10 | 0.07 | 94 | 1014.7 |
| 20260507055508 | 59 | 115 | 0.9 | 3.5 | 0.00 | 0.10 | 0.07 | 94 | 1014.6 |
| 20260507055018 | 58 | 75 | 1.7 | 3.5 | 0.00 | 0.10 | 0.07 | 94 | 1014.6 |
| 20260507054516 | 58 | 77 | 1.7 | 2.6 | 0.00 | 0.10 | 0.07 | 94 | 1014.6 |
| 20260507054006 | 57 | 86 | 0.9 | 2.6 | 0.00 | 0.10 | 0.07 | 94 | 1014.6 |
| 20260507053506 | 57 | 76 | 0.9 | 2.6 | 0.00 | 0.10 | 0.07 | 94 | 1014.6 |
| 20260507053023 | 57 | 68 | 0.9 | 2.6 | 0.00 | 0.10 | 0.07 | 94 | 1014.7 |
| 20260507052509 | 56 | 55 | 0.9 | 2.6 | 0.00 | 0.11 | 0.07 | 94 | 1014.6 |
| 20260507052007 | 56 | 43 | 0.9 | 1.7 | 0.00 | 0.11 | 0.07 | 94 | 1014.6 |
| 20260507051524 | 56 | 68 | 0.9 | 0.9 | 0.00 | 0.11 | 0.07 | 94 | 1014.6 |
| 20260507051009 | 56 | 68 | 0.0 | 1.7 | 0.00 | 0.11 | 0.07 | 94 | 1014.6 |
| 20260507050514 | 56 | 68 | 0.9 | 1.7 | 0.00 | 0.11 | 0.07 | 94 | 1014.5 |
| 20260507050037 | 55 | 63 | 0.9 | 1.7 | 0.00 | 0.11 | 0.07 | 94 | 1014.5 |
| 20260507045515 | 55 | 40 | 0.9 | 1.7 | 0.00 | 0.10 | 0.06 | 94 | 1014.4 |
| 20260507045008 | 55 | 53 | 0.9 | 1.7 | 0.00 | 0.10 | 0.06 | 94 | 1014.3 |
| 20260507044529 | 55 | 58 | 0.9 | 1.7 | 0.00 | 0.10 | 0.06 | 94 | 1014.3 |
| 20260507044011 | 55 | 60 | 0.9 | 1.7 | 0.00 | 0.10 | 0.06 | 94 | 1014.3 |
| 20260507043507 | 55 | 68 | 0.9 | 1.7 | 0.00 | 0.10 | 0.06 | 94 | 1014.2 |
| 20260507043018 | 55 | 65 | 0.9 | 1.7 | 0.00 | 0.11 | 0.06 | 94 | 1014.2 |
| 20260507042507 | 55 | 37 | 0.9 | 1.7 | 0.00 | 0.11 | 0.06 | 94 | 1014.2 |
| 20260507042007 | 55 | 46 | 0.9 | 1.7 | 0.00 | 0.11 | 0.06 | 94 | 1014.1 |
| 20260507041526 | 55 | 41 | 0.9 | 0.9 | 0.00 | 0.11 | 0.06 | 94 | 1014.1 |
| 20260507041007 | 55 | 41 | 0.0 | 1.7 | 0.00 | 0.12 | 0.06 | 94 | 1014.0 |
| 20260507040509 | 55 | 41 | 0.9 | 1.7 | 0.00 | 0.13 | 0.06 | 94 | 1014.0 |
| 20260507040026 | 55 | 30 | 0.0 | 1.7 | 0.00 | 0.14 | 0.06 | 94 | 1014.1 |
| 20260507035507 | 55 | 33 | 0.9 | 1.7 | 0.00 | 0.14 | 0.06 | 94 | 1013.9 |
| 20260507035011 | 56 | 110 | 0.0 | 1.7 | 0.00 | 0.14 | 0.06 | 94 | 1013.8 |
| 20260507034526 | 56 | 110 | 0.0 | 1.7 | 0.00 | 0.14 | 0.06 | 94 | 1013.8 |
| 20260507034011 | 56 | 119 | 0.0 | 0.9 | 0.00 | 0.14 | 0.06 | 94 | 1013.8 |
| 20260507033509 | 56 | 120 | 0.0 | 0.9 | 0.00 | 0.14 | 0.06 | 94 | 1013.8 |
| 20260507033028 | 56 | 99 | 0.0 | 1.7 | 0.00 | 0.15 | 0.06 | 94 | 1013.7 |
| 20260507032510 | 56 | 76 | 0.0 | 2.6 | 0.00 | 0.16 | 0.06 | 94 | 1013.8 |
| 20260507032012 | 56 | 75 | 0.9 | 2.6 | 0.00 | 0.17 | 0.06 | 94 | 1013.8 |
| 20260507031517 | 56 | 103 | 0.9 | 2.6 | 0.00 | 0.18 | 0.06 | 94 | 1013.7 |
| 20260507031007 | 57 | 86 | 0.9 | 2.6 | 0.00 | 0.18 | 0.06 | 94 | 1013.8 |
| 20260507030511 | 57 | 136 | 0.0 | 1.7 | 0.00 | 0.19 | 0.06 | 94 | 1013.8 |
| 20260507030028 | 57 | 96 | 0.9 | 2.6 | 0.00 | 0.19 | 0.06 | 94 | 1013.8 |
| 20260507025507 | 57 | 141 | 0.0 | 2.6 | 0.00 | 0.19 | 0.06 | 94 | 1013.8 |
| 20260507025011 | 57 | 88 | 0.9 | 1.7 | 0.00 | 0.19 | 0.06 | 94 | 1013.9 |
| 20260507024528 | 57 | 113 | 0.0 | 1.7 | 0.00 | 0.19 | 0.06 | 94 | 1013.9 |
| 20260507024009 | 57 | 134 | 0.0 | 1.7 | 0.00 | 0.19 | 0.06 | 94 | 1013.9 |
| 20260507023509 | 57 | 116 | 0.9 | 1.7 | 0.00 | 0.19 | 0.06 | 94 | 1013.9 |
| 20260507023010 | 57 | 105 | 0.0 | 2.6 | 0.00 | 0.19 | 0.06 | 94 | 1014.0 |
| 20260507022505 | 58 | 127 | 0.0 | 2.6 | 0.00 | 0.19 | 0.06 | 94 | 1014.0 |
| 20260507022006 | 58 | 117 | 0.0 | 1.7 | 0.00 | 0.19 | 0.06 | 94 | 1014.0 |
| 20260507021517 | 58 | 115 | 0.9 | 2.6 | 0.00 | 0.19 | 0.06 | 94 | 1014.0 |
| 20260507021005 | 58 | 90 | 0.0 | 3.5 | 0.00 | 0.19 | 0.06 | 94 | 1014.0 |
| 20260507020506 | 58 | 161 | 0.0 | 3.5 | 0.00 | 0.19 | 0.06 | 94 | 1014.0 |
| 20260507020020 | 58 | 129 | 0.0 | 2.6 | 0.00 | 0.19 | 0.06 | 94 | 1014.0 |
| 20260507015511 | 59 | 140 | 0.9 | 2.6 | 0.00 | 0.19 | 0.06 | 94 | 1014.1 |
| 20260507015007 | 59 | 94 | 0.0 | 1.7 | 0.00 | 0.19 | 0.06 | 94 | 1014.0 |
| 20260507014525 | 59 | 123 | 0.0 | 2.6 | 0.00 | 0.19 | 0.06 | 94 | 1014.0 |
| 20260507014009 | 59 | 107 | 0.0 | 2.6 | 0.00 | 0.19 | 0.06 | 94 | 1014.0 |
| 20260507013507 | 59 | 129 | 0.0 | 1.7 | 0.00 | 0.19 | 0.06 | 94 | 1014.0 |
| 20260507013025 | 59 | 114 | 0.0 | 2.6 | 0.00 | 0.19 | 0.06 | 94 | 1014.0 |
| 20260507012508 | 59 | 108 | 0.0 | 2.6 | 0.00 | 0.19 | 0.06 | 94 | 1014.0 |
| 20260507012010 | 59 | 103 | 0.0 | 3.5 | 0.00 | 0.19 | 0.06 | 94 | 1014.1 |
| 20260507011512 | 59 | 153 | 0.9 | 3.5 | 0.00 | 0.19 | 0.06 | 94 | 1014.0 |
| 20260507011005 | 59 | 103 | 0.9 | 2.6 | 0.00 | 0.19 | 0.06 | 94 | 1014.0 |
| 20260507010509 | 59 | 153 | 0.9 | 2.6 | 0.00 | 0.19 | 0.06 | 94 | 1014.0 |
| 20260507010017 | 59 | 110 | 0.0 | 2.6 | 0.00 | 0.19 | 0.06 | 93 | 1014.0 |
| 20260507005505 | 59 | 132 | 0.9 | 3.5 | 0.00 | 0.19 | 0.06 | 93 | 1014.1 |
| 20260507005010 | 59 | 139 | 0.9 | 3.5 | 0.00 | 0.19 | 0.06 | 93 | 1014.0 |
| 20260507004522 | 59 | 94 | 0.9 | 3.5 | 0.00 | 0.19 | 0.06 | 93 | 1014.0 |
| 20260507004008 | 59 | 77 | 0.9 | 2.6 | 0.00 | 0.19 | 0.06 | 93 | 1014.2 |
| 20260507003508 | 59 | 154 | 0.9 | 4.3 | 0.00 | 0.19 | 0.06 | 93 | 1014.2 |
| 20260507003025 | 59 | 190 | 0.0 | 4.3 | 0.00 | 0.19 | 0.06 | 93 | 1014.2 |
| 20260507002513 | 60 | 158 | 0.0 | 4.3 | 0.02 | 0.19 | 0.06 | 93 | 1014.1 |
| 20260507002014 | 60 | 127 | 1.7 | 4.3 | 0.03 | 0.19 | 0.06 | 93 | 1014.1 |
| 20260507001527 | 60 | 75 | 0.9 | 4.3 | 0.03 | 0.19 | 0.06 | 94 | 1014.0 |
| 20260507001010 | 60 | 72 | 0.9 | 3.5 | 0.03 | 0.19 | 0.06 | 93 | 1014.1 |
| 20260507000513 | 60 | 139 | 0.9 | 3.5 | 0.03 | 0.19 | 0.06 | 93 | 1014.1 |
| 20260507000015 | 61 | 219 | 0.9 | 2.6 | 0.03 | 0.19 | 0.06 | 94 | 1014.1 |
| 20260506235508 | 61 | 164 | 0.9 | 3.5 | 0.03 | 0.19 | 0.06 | 94 | 1014.1 |
| 20260506235009 | 61 | 145 | 0.0 | 3.5 | 0.04 | 0.19 | 0.06 | 94 | 1014.2 |
| 20260506234521 | 61 | 199 | 0.0 | 2.6 | 0.04 | 0.19 | 0.06 | 94 | 1014.2 |
| 20260506234008 | 61 | 236 | 0.0 | 1.7 | 0.04 | 0.19 | 0.06 | 93 | 1014.2 |
| 20260506233510 | 61 | 72 | 0.9 | 2.6 | 0.04 | 0.19 | 0.06 | 94 | 1014.2 |
| 20260506233024 | 61 | 123 | 0.0 | 2.6 | 0.03 | 0.18 | 0.05 | 94 | 1014.2 |
| 20260506232507 | 60 | 97 | 0.9 | 1.7 | 0.02 | 0.17 | 0.03 | 94 | 1014.3 |
| 20260506232007 | 60 | 120 | 0.0 | 0.9 | 0.01 | 0.16 | 0.03 | 93 | 1014.2 |
| 20260506231527 | 60 | 115 | 0.0 | 0.9 | 0.01 | 0.15 | 0.02 | 93 | 1014.2 |
| 20260506231012 | 60 | 115 | 0.0 | 0.9 | 0.01 | 0.15 | 0.02 | 93 | 1014.2 |
| 20260506230509 | 60 | 235 | 0.0 | 0.9 | 0.01 | 0.15 | 0.02 | 93 | 1014.2 |
| 20260506230029 | 60 | 249 | 0.0 | 2.6 | 0.02 | 0.15 | 0.02 | 93 | 1014.2 |
| 20260506225507 | 61 | 131 | 0.0 | 2.6 | 0.02 | 0.15 | 0.02 | 93 | 1014.1 |
| 20260506225012 | 61 | 127 | 0.0 | 2.6 | 0.02 | 0.14 | 0.01 | 93 | 1013.9 |
| 20260506224514 | 61 | 137 | 0.0 | 2.6 | 0.02 | 0.14 | 0.01 | 93 | 1014.0 |
| 20260506224007 | 61 | 131 | 0.9 | 1.7 | 0.03 | 0.14 | 0.01 | 93 | 1013.9 |
| 20260506223505 | 61 | 141 | 0.0 | 1.7 | 0.03 | 0.14 | 0.01 | 93 | 1013.9 |
| 20260506223018 | 61 | 101 | 0.9 | 1.7 | 0.03 | 0.14 | 0.01 | 93 | 1013.9 |
| 20260506222507 | 61 | 127 | 0.0 | 3.5 | 0.03 | 0.14 | 0.01 | 93 | 1013.9 |
| 20260506222014 | 61 | 91 | 0.9 | 3.5 | 0.03 | 0.14 | 0.01 | 93 | 1013.9 |
| 20260506221523 | 61 | 79 | 0.9 | 4.3 | 0.03 | 0.14 | 0.00 | 93 | 1014.0 |
| 20260506221013 | 61 | 150 | 0.9 | 5.2 | 0.03 | 0.14 | 0.00 | 93 | 1014.0 |
| 20260506220509 | 61 | 185 | 1.7 | 7.0 | 0.03 | 0.14 | 0.00 | 93 | 1014.1 |
| 20260506220035 | 62 | 199 | 1.7 | 7.0 | 0.03 | 0.13 | 0.00 | 93 | 1014.1 |
| 20260506215515 | 62 | 155 | 1.7 | 5.2 | 0.03 | 0.13 | 0.13 | 93 | 1014.1 |
| 20260506215010 | 62 | 74 | 2.6 | 5.2 | 0.02 | 0.12 | 0.12 | 92 | 1014.0 |
| 20260506214529 | 62 | 126 | 1.7 | 4.3 | 0.02 | 0.12 | 0.12 | 92 | 1014.0 |
| 20260506214010 | 62 | 86 | 0.9 | 7.0 | 0.01 | 0.11 | 0.11 | 92 | 1014.0 |
| 20260506213510 | 62 | 103 | 1.7 | 7.0 | 0.01 | 0.11 | 0.11 | 92 | 1014.2 |
| 20260506213018 | 62 | 132 | 1.7 | 7.8 | 0.01 | 0.11 | 0.11 | 92 | 1014.3 |
| 20260506212507 | 62 | 108 | 1.7 | 7.8 | 0.01 | 0.11 | 0.11 | 92 | 1014.3 |
| 20260506212007 | 62 | 157 | 0.9 | 5.2 | 0.00 | 0.11 | 0.11 | 92 | 1014.3 |
| 20260506211529 | 62 | 87 | 1.7 | 5.2 | 0.00 | 0.11 | 0.11 | 92 | 1014.3 |
| 20260506211008 | 62 | 82 | 0.9 | 4.3 | 0.00 | 0.11 | 0.11 | 92 | 1014.3 |
| 20260506210512 | 62 | 150 | 0.9 | 3.5 | 0.00 | 0.10 | 0.10 | 91 | 1014.4 |
| 20260506210028 | 62 | 150 | 0.9 | 4.3 | 0.00 | 0.10 | 0.10 | 91 | 1014.5 |
| 20260506205513 | 62 | 133 | 0.0 | 4.3 | 0.00 | 0.10 | 0.10 | 91 | 1014.4 |
| 20260506205010 | 62 | 166 | 0.9 | 4.3 | 0.00 | 0.10 | 0.10 | 91 | 1014.3 |
| 20260506204528 | 61 | 193 | 0.9 | 4.3 | 0.00 | 0.10 | 0.10 | 90 | 1014.3 |
| 20260506204011 | 62 | 122 | 0.9 | 3.5 | 0.00 | 0.10 | 0.10 | 90 | 1014.2 |
| 20260506203515 | 62 | 155 | 0.9 | 6.1 | 0.00 | 0.10 | 0.10 | 90 | 1014.2 |
| 20260506203031 | 62 | 50 | 2.6 | 6.1 | 0.00 | 0.10 | 0.10 | 90 | 1014.1 |
| 20260506202510 | 62 | 57 | 1.7 | 4.3 | 0.00 | 0.10 | 0.10 | 90 | 1014.1 |
| 20260506202012 | 62 | 110 | 0.9 | 5.2 | 0.00 | 0.10 | 0.10 | 90 | 1014.1 |
| 20260506201529 | 62 | 94 | 1.7 | 6.1 | 0.00 | 0.10 | 0.10 | 89 | 1014.1 |
| 20260506201007 | 62 | 141 | 0.9 | 6.1 | 0.00 | 0.10 | 0.10 | 89 | 1014.0 |
| 20260506200509 | 62 | 100 | 1.7 | 5.2 | 0.00 | 0.10 | 0.10 | 89 | 1014.0 |
| 20260506200023 | 62 | 125 | 1.7 | 4.3 | 0.00 | 0.10 | 0.10 | 89 | 1013.9 |
| 20260506195508 | 62 | 112 | 1.7 | 5.2 | 0.00 | 0.10 | 0.10 | 89 | 1014.0 |
| 20260506195011 | 62 | 92 | 1.7 | 5.2 | 0.00 | 0.10 | 0.10 | 89 | 1014.0 |
| 20260506194524 | 62 | 89 | 0.9 | 5.2 | 0.00 | 0.10 | 0.10 | 88 | 1014.0 |
| 20260506194009 | 62 | 122 | 0.9 | 4.3 | 0.00 | 0.10 | 0.10 | 88 | 1013.9 |
| 20260506193512 | 62 | 96 | 1.7 | 5.2 | 0.00 | 0.10 | 0.10 | 87 | 1013.8 |
| 20260506193027 | 62 | 141 | 1.7 | 5.2 | 0.00 | 0.10 | 0.10 | 87 | 1013.7 |
| 20260506150510 | 65 | 117 | 1.7 | 7.8 | 0.00 | 0.11 | 0.10 | 83 | 1013.1 |
| 20260506150008 | 65 | 68 | 3.5 | 13.0 | 0.00 | 0.11 | 0.10 | 82 | 1013.0 |
| 20260506145506 | 65 | 110 | 2.6 | 13.0 | 0.00 | 0.11 | 0.10 | 83 | 1013.1 |
| 20260506145007 | 65 | 162 | 4.3 | 11.3 | 0.00 | 0.12 | 0.10 | 82 | 1013.0 |
| 20260506144509 | 65 | 140 | 2.6 | 11.3 | 0.00 | 0.13 | 0.10 | 82 | 1013.0 |
| 20260506144009 | 65 | 82 | 2.6 | 9.6 | 0.00 | 0.15 | 0.10 | 82 | 1013.0 |
| 20260506143504 | 65 | 124 | 4.3 | 10.4 | 0.00 | 0.16 | 0.10 | 81 | 1013.0 |
| 20260506143018 | 66 | 114 | 4.3 | 10.4 | 0.00 | 0.16 | 0.10 | 81 | 1012.9 |